Location: Unspecified
(43.4354°N, 0.0000°E)
Time: 04:30:43
(UTC+00:00)

Vanguard 2 Rocket - Pass Details

Date: 20 June 2019
Orbit: 553 x 3327 km, 32.9° (Epoch: 16 August)

Event Time Altitude Azimuth Distance (km) Brightness Sun altitude
Rises 03:50:45 0° 276° (W) 6,185 10.7 -5.0°
Reaches altitude 10° 03:54:55 10° 268° (W) 5,494 10.4 -4.4°
Maximum altitude 04:09:57 36° 211° (SSW) 4,403 9.9 -2.2°
Drops below altitude 10° 04:26:52 10° 154° (SSE) 6,114 11.1 0.3°
Sets 04:31:56 0° 146° (SE) 6,927 11.4 1.1°
